User: anonymous   Login
Location: Korczew
(51.3586°N, 19.4491°E)
Time: 08:26:57
(UTC+00:00)
Language:

BREEZE-M R/B - Orbit

View from above orbital plane
View from above orbital plane
View from above satellite
View from above satellite

Ground track
Ground track

The orbit data is extracted from the following two-line orbital elements,

1 32709U 08011B   25344.64049932  .00001982  00000-0  11637-1 0  9995
2 32709  49.4474  18.9674 6521421 206.3918  95.6681  3.09682275140394
Epoch (UTC): 10 December 2025 15:22:19
Eccentricity: 0.6521421
inclination: 49.4474°
perigee height: 538 km
apogee height: 26469 km
right ascension of ascending node: 18.9674°
argument of perigee: 206.3918°
revolutions per day: 3.09682275
mean anomaly at epoch: 95.6681°
orbit number at epoch: 14039

The dashed part of the orbit path shows where the satellite is in the earth's shadow,  

DLR